weather.gov     
National Weather Service

Regional Weather Roundup
NWS Homepage
This page is being discontinued on March 12, 2014.
The same data is available at this site. Please update your bookmarks.
Thank you, and we apologize for the inconvenience.
Please send an email to SR-SRH.Webmaster@noaa.gov with any concerns.


Current Version
Previous Version:    01  02  03  04  05  06  07  08  09  10  11  12  13  14  15  16  17  18  19  20  21  22  23  24  25  26  
[Printable]
658
ASUS42 KTBW 241210
RWRFL
FLORIDA REGIONAL WEATHER ROUNDUP
NATIONAL WEATHER SERVICE TAMPA BAY RUSKIN FL
800 AM EDT THU APR 24 2014

NOTE: "FAIR" INDICATES FEW OR NO CLOUDS BELOW 12,000 FEET WITH NO
SIGNIFICANT WEATHER AND/OR OBSTRUCTIONS TO VISIBILITY.


FLZ001>010-012>015-112-114-115-241300-
PANHANDLE FLORIDA

CITY           SKY/WX    TMP DP  RH WIND       PRES   REMARKS
PENSACOLA      CLOUDY    67  65  93 CALM      29.98R FOG
PENSACOLA NAS  MOCLDY    66  66 100 CALM      29.98R
MILTON NAS     FOG       64  63  96 SW3       29.98R VSB<1/4
CRESTVIEW      FOG       65  64  97 CALM      29.99R VSB<1/4
DUKE FIELD     FOG       65  65 100 SW3       29.98R VSB<1/4
VALPARAISO     CLOUDY    66  66 100 W3        29.99R FOG
MARY ESTHER    PTCLDY    67  63  86 CALM      29.97R
PANAMA CITY    FOG       66  64  94 NW3       29.97R VSB 1/8
TYNDALL AFB    CLOUDY    66  66 100 CALM      29.99R FOG
APALACHICOLA   FOG       64  62  93 CALM      29.98R VSB 1/4

STATION/POSITION SKY/WX   TEMP    WIND        PRES    WAVE   SWELL
                          AIR SEA DIR/SP/G            HT/PER HT/PER
                          (F)     (DEG/KT/KT) (MB)    (FT/S) (FT/S)
30.1N   87.6W              69 71  240/  4/  6 1015.0R   0
29.2N   88.2W              70 71  200/  2/  4 1014.6R
28.8N   86.0W              70 70   60/  2/  4 1015.5    1
PANAMA CITY BEAC           67 66  340/  3/  3 1014.8R
CAPE SAN BLAS    NOT AVBL
TOWER C                    67     310/  2/  3 1015.2R
28.5N   84.5W              70 70   60/  2/  2 1015.4R   1/ 4

$$
FLZ011-016>038-118-127-128-134-139-239-241300-
NORTH FLORIDA

CITY           SKY/WX    TMP DP  RH WIND       PRES   REMARKS
MARIANNA       FOG       64  64 100 CALM      29.98R VSB 1/2
TALLAHASSEE    PTSUNNY   64  61  88 CALM      29.98R FOG
PERRY          FOG       61  61 100 CALM      30.00R VSB 1/4
CROSS CITY       N/A     66  65  96 CALM      29.99R
GAINESVILLE    CLOUDY    65  64  97 CALM      30.00R FOG
MAYPORT NAS    PTSUNNY   67  64  90 SW6       29.99R
JACKSONVILLE   PTSUNNY   64  64 100 S3        29.99R FOG
JAX NAS        PTSUNNY   66  64  93 CALM      30.00R FOG
JAX CRAIG      MOSUNNY   68  64  87 CALM      29.99R
JAX CECIL      FOG       63  63 100 CALM      29.99R VSB 1/4
FERNANDINA BEA CLOUDY    68  63  83 CALM      29.98R
ST AUGUSTINE   PTSUNNY   66  64  93 SW5       30.00R FOG

STATION/POSITION SKY/WX   TEMP    WIND        PRES    WAVE   SWELL
                          AIR SEA DIR/SP/G            HT/PER HT/PER
                          (F)     (DEG/KT/KT) (MB)    (FT/S) (FT/S)
SHELL POINT                64     330/  4/  5 1013.5R
KEATON BEACH               65      CALM  /  2 1015.7R
CEDAR KEY                  70      10/  1/  2 1016.1R
FERNANDINA                 66 66  350/  2/  3 1014.5R
30.7N   81.3W                 68                N/A     1/ 9
MAYPORT                    66 66  240/  5/  6   N/A
31.4N   80.9W              68 67   CALM  /  2 1015.2R   1/ 9   2/ 9
ST AUGUSTINE               66     250/  4/  6 1016.1R

$$
FLZ040-043>046-052-053-057-058-063-144-241300-
INTERIOR CENTRAL FLORIDA

CITY           SKY/WX    TMP DP  RH WIND       PRES   REMARKS
OCALA          CLOUDY    64  64 100 CALM      30.01R FOG
THE VILLAGES   FOG       64  64 100 CALM      30.01R VSB 3/4
LEESBURG       FOG       67  66  97 N3        30.01R VSB 1/2
SANFORD        SUNNY     66  65  96 CALM      29.99R FOG
ORLANDO EXEC   SUNNY     69  65  86 NW3       29.99R FOG
ORLANDO INTL   SUNNY     69  65  86 N3        30.00R
KISSIMMEE      SUNNY     66  66 100 CALM      30.00R FOG
WINTER HAVEN     N/A    N/A N/A N/A MISG      30.01R
LAKELAND       SUNNY     64  64 100 CALM      30.00R
BARTOW         FOG       63 N/A N/A N3        30.01R VSB 1/4
OKEECHOBEE     SUNNY     61  61 100 CALM      30.00R FOG

$$
FLZ041-047-054-059-064-141-147-241300-
EAST CENTRAL FLORIDA

CITY           SKY/WX    TMP DP  RH WIND       PRES   REMARKS
ORMOND BEACH   SUNNY     63  63 100 CALM      30.00R FOG
DAYTONA BEACH  SUNNY     66  64  93 CALM      30.00R FOG
DELAND         CLOUDY    64  64 100 W3        30.01R VSB<1/4
NEW SMYRNA BEA SUNNY     64  63  94 CALM      30.00R FOG
JFK SPACE CTR  SUNNY     65  64  97 N1        29.99R
CAPE CANAVERAL SUNNY     66  65  94 NE2       29.98R
PATRICK AFB    SUNNY     71  68  91 N3        29.99R
MELBOURNE      SUNNY     67  65  93 CALM      29.99R
VERO BEACH     SUNNY     67  67 100 CALM      29.99R FOG
FT PIERCE      SUNNY     64  63  96 CALM      29.99R FOG
STUART         SUNNY     66  64  94 CALM      29.99R

STATION/POSITION SKY/WX   TEMP    WIND        PRES    WAVE   SWELL
                          AIR SEA DIR/SP/G            HT/PER HT/PER
                          (F)     (DEG/KT/KT) (MB)    (FT/S) (FT/S)
28.5N   80.2W              74 78  200/  4/  4 1015.1R
28.9N   78.5W              74 75   90/  2/  2 1016.0R   2/ 8   2/ 8
TRIDENT PIER               69 75   10/  2/  2 1014.6R
28.4N   80.5W                 72                N/A     1/ 8
27.6N   80.2W                 74                N/A     2/ 9

$$
FLZ050-056-061-142-242-148-248-149-249-151-251-155-255-
160-260-241300-
WEST CENTRAL FLORIDA

CITY           SKY/WX    TMP DP  RH WIND       PRES   REMARKS
CRYSTAL RIVER  CLOUDY    61  59  94 CALM      30.01R FOG
INVERNESS      FOG       63  61  94 CALM      30.01R VSB<1/4
BROOKSVILLE    LGT RAIN  59  58  96 CALM      30.01R VSB 1/4
CLEARWATER     SUNNY     66  63  90 CALM      30.00R FOG
TAMPA INTL     SUNNY     68  65  90 CALM      30.00R FOG
TAMPA EXEC     FOG       64  61  88 CALM      30.01R VSB<1/4
PLANT CITY     FOG       64 N/A N/A CALM      30.02R VSB 1/2
MACDILL AFB    SUNNY     63  63 100 NE1       30.00R
PETER O KNIGHT SUNNY     68  68 100 CALM      30.00R FOG
ST PETERSBURG  SUNNY     70  67  90 CALM      29.99R
SARASOTA       SUNNY     63  62  97 CALM      29.98R FOG
VENICE           N/A     64  64 100 E3        30.01R FOG

STATION/POSITION SKY/WX   TEMP    WIND        PRES    WAVE   SWELL
                          AIR SEA DIR/SP/G            HT/PER HT/PER
                          (F)     (DEG/KT/KT) (MB)    (FT/S) (FT/S)
CEDAR KEY                  70      10/  1/  2 1016.1R
28.5N   84.5W              70 70   60/  2/  2 1015.4R   1/ 4
27.3N   84.3W                 73                N/A     1
CLEARWATER BEACH           71 72   CALM  /  2 1015.1R
MIDDLE TAMPA BAY           69     360/  2/  3 1015.9R
VENICE                     66 73   80/  4/  5 1015.3R

$$
FLZ066-069-070-075>078-162-262-165-265-241300-
SOUTHWEST FLORIDA AND KEYS

CITY           SKY/WX    TMP DP  RH WIND       PRES   REMARKS
PUNTA GORDA    FOG       64  63  96 CALM      30.02R VSB<1/4
FT MYERS       SUNNY     65  63  93 CALM      30.00R FOG
SOUTHWEST INTL SUNNY     63  61  93 CALM      30.00R
NAPLES         SUNNY     66  64  93 CALM      30.00R FOG
MARATHON       SUNNY     74  66  76 NE7       29.99R
KEY WEST NAS   MOSUNNY   73  67  81 NE3       30.00R
KEY WEST INTL  SUNNY     73  67  81 NE3       30.00R

STATION/POSITION SKY/WX   TEMP    WIND        PRES    WAVE   SWELL
                          AIR SEA DIR/SP/G            HT/PER HT/PER
                          (F)     (DEG/KT/KT) (MB)    (FT/S) (FT/S)
VENICE                     66 73   80/  4/  5 1015.3R
NAPLES                     67 77   90/  4/  6 1016.1R
26.0N   85.6W              76 80  140/  8/ 12 1014.6    1/ 8   2/ 8
DRY TORTUGAS     NOT AVBL
NW FL BAY                  73      80/  4/  5 1015.1R
SOMBRERO KEY               74      90/  5/  6 1016.5R
LONG KEY                   73 79   20/  3/  6 1016.7R
MOLASSES REEF              72 79  340/  3/  4 1015.9R

$$
FLZ067-068-071>074-168-172>174-241300-
SOUTHEAST FLORIDA

CITY           SKY/WX    TMP DP  RH WIND       PRES   REMARKS
W PALM BEACH   MOSUNNY   71  64  78 CALM      29.98R
FT LAUDER-EXEC SUNNY     70  64  81 CALM      29.99R
FT LAUDERDALE  MOSUNNY   72  64  76 CALM      29.99R
POMPANO BEACH  SUNNY     70  64  81 SW3       29.99R
PEMBROKE PINES SUNNY     70  65  84 CALM      30.00R
OPA LOCKA      SUNNY     70  63  78 CALM      30.00R
MIAMI          SUNNY     70  65  84 CALM      30.00R
WEST KENDALL   SUNNY     63  63 100 CALM      30.01R
HOMESTEAD      MOSUNNY   63  59  88 SW2       30.00R

STATION/POSITION SKY/WX   TEMP    WIND        PRES    WAVE   SWELL
                          AIR SEA DIR/SP/G            HT/PER HT/PER
                          (F)     (DEG/KT/KT) (MB)    (FT/S) (FT/S)
PORT EVERGLADES            70     270/  3/  4 1015.4
VIRGINIA KEY               74 79   CALM  /  1 1015.7R
LAKE WORTH                 73 79     CALM     1014.9R
FOWEY ROCKS                76 77   CALM  /  2 1015.7R
SETTLEMENT POINT           75     130/  5/  6 1016.2R

$$





U.S. Dept. of Commerce
NOAA National Weather Service
1325 East West Highway
Silver Spring, MD 20910
E-mail: w-nws.webmaster@noaa.gov
Page last modified: May 16, 2007
NATIONAL WEATHER SERVICE: for Safety, for Work, for Fun - FOR LIFE